Gatesville, TX

4:40 PM CDT on June 22, 2017 (GMT -0500)
Gatesville

Weather History for KGOP - June, 2014

Change the Weather History Date:

Friday, June 13, 2014

  Actual Average (KHLR) Record (KHLR)
Temperature  
Mean Temperature 76 °F -  
Max Temperature 87 °F 88 °F 100 °F (2011)
Min Temperature 66 °F 71 °F 64 °F (1997)
Cooling Degree Days 12    
Growing Degree Days 26 (Base 50)    
Moisture  
Dew Point 69 °F    
Average Humidity 79    
Maximum Humidity 100    
Minimum Humidity 52    
Precipitation  
Precipitation 0.00 in - - ()
Sea Level Pressure  
Sea Level Pressure 29.98 in    
Wind  
Wind Speed 2 mph (East)    
Max Wind Speed 7 mph    
Max Gust Speed -    
Visibility 10 miles    
Events      
Averages and records for this station are not official NWS values.
T = Trace of Precipitation, MM = Missing Value Source: NWS Daily Summary

Daily Weather History Graph

Daily Weather History Graph

Search for Another Location

Airport or City:

Trip Planner

Search our weather history database for the weather conditions in past years. The results will help you decide how hot, cold, wet, or windy it might be!

Date:

Astronomy

Jun. 13, 2014 Rise Set
Actual Time 6:26 AM CDT 8:36 PM CDT
Civil Twilight 5:58 AM CDT 9:04 PM CDT
Nautical Twilight 5:24 AM CDT 9:38 PM CDT
Astronomical Twilight 4:47 AM CDT 10:15 PM CDT
Moon 9:14 PM CDT (6/13) 7:01 AM CDT (6/13)
Length of Visible Light 15h 06m
Length of Day
14h 10m
Full, 100% of the Moon is Illuminated
Jun 13
Full
Jun 19
Last Quarter
Jun 27
New
Jul 5
First Quarter
Jul 12
Full

Hourly Weather History & Observations

Time (CDT) Temp. Heat Index Dew Point Humidity Pressure Visibility Wind Dir Wind Speed Gust Speed Precip Events Conditions
12:10 AM 69.8 °F - 68.0 °F 94% 29.97 in 10.0 mi Calm Calm - N/A   Mostly Cloudy
12:30 AM 69.8 °F - 69.8 °F 100% 29.95 in 10.0 mi NE 4.6 mph - N/A   Partly Cloudy
12:50 AM 69.8 °F - 69.8 °F 100% 29.96 in 10.0 mi NE 5.8 mph - N/A   Clear
1:10 AM 69.8 °F - 69.8 °F 100% 29.97 in 10.0 mi ENE 5.8 mph - N/A   Clear
1:50 AM 69.8 °F - 69.8 °F 100% 29.98 in 10.0 mi Calm Calm - N/A   Clear
2:10 AM 69.8 °F - 69.8 °F 100% 29.97 in 10.0 mi Calm Calm - N/A   Clear
2:30 AM 69.8 °F - 69.8 °F 100% 29.97 in 10.0 mi Calm Calm - N/A   Clear
2:50 AM 69.8 °F - 69.8 °F 100% 29.98 in 10.0 mi NE 3.5 mph - N/A   Clear
3:10 AM 69.8 °F - 69.8 °F 100% 29.99 in 10.0 mi Calm Calm - N/A   Clear
3:50 AM 69.8 °F - 69.8 °F 100% 29.99 in 10.0 mi East 3.5 mph - N/A   Clear
4:10 AM 68.0 °F - 68.0 °F 100% 29.99 in 10.0 mi Calm Calm - N/A   Clear
4:30 AM 68.0 °F - 68.0 °F 100% 30.00 in 10.0 mi Calm Calm - N/A   Clear
5:00 AM 68.0 °F - 66.2 °F 94% 30.00 in 10.0 mi Calm Calm - N/A   Clear
5:10 AM 68.0 °F - 68.0 °F 100% 30.00 in 10.0 mi Calm Calm - N/A   Clear
5:50 AM 68.0 °F - 66.2 °F 94% 29.99 in 10.0 mi Calm Calm - N/A   Clear
6:15 AM 66.2 °F - 66.2 °F 100% 30.00 in 10.0 mi West 4.6 mph - N/A   Clear
6:30 AM 66.2 °F - 66.2 °F 100% 30.01 in 10.0 mi WSW 4.6 mph - N/A   Clear
6:50 AM 68.0 °F - 66.2 °F 94% 30.01 in 10.0 mi Calm Calm - N/A   Clear
7:10 AM 68.0 °F - 68.0 °F 100% 30.02 in 10.0 mi Calm Calm - N/A   Clear
7:30 AM 71.6 °F - 68.0 °F 88% 30.01 in 10.0 mi NW 3.5 mph - N/A   Clear
8:10 AM 71.6 °F - 69.8 °F 94% 30.02 in 10.0 mi NNE 6.9 mph - N/A   Partly Cloudy
8:30 AM 71.6 °F - 69.8 °F 94% 30.03 in 10.0 mi NE 4.6 mph - N/A   Scattered Clouds
8:50 AM 73.4 °F - 69.8 °F 88% 30.03 in 10.0 mi ENE 3.5 mph - N/A   Mostly Cloudy
9:10 AM 73.4 °F - 69.8 °F 88% 30.04 in 10.0 mi East 4.6 mph - N/A   Mostly Cloudy
9:30 AM 73.4 °F - 69.8 °F 88% 30.04 in 10.0 mi East 6.9 mph - N/A   Mostly Cloudy
9:50 AM 73.4 °F - 69.8 °F 88% 30.04 in 10.0 mi ENE 5.8 mph - N/A   Mostly Cloudy
10:10 AM 73.4 °F - 69.8 °F 88% 30.04 in 10.0 mi East 5.8 mph - N/A   Mostly Cloudy
10:30 AM 75.2 °F - 69.8 °F 83% 30.04 in 10.0 mi ENE 3.5 mph - N/A   Scattered Clouds
10:55 AM 75.2 °F - 68.0 °F 78% 30.05 in 10.0 mi Calm Calm - N/A   Mostly Cloudy
11:20 AM 78.8 °F - 68.0 °F 69% 30.04 in 10.0 mi Calm Calm - N/A   Mostly Cloudy
11:30 AM 78.8 °F - 68.0 °F 69% 30.04 in 10.0 mi SSW 3.5 mph - N/A   Scattered Clouds
11:50 AM 80.6 °F 83.2 °F 68.0 °F 65% 30.04 in 10.0 mi WSW 3.5 mph - N/A   Mostly Cloudy
12:10 PM 80.6 °F 83.2 °F 68.0 °F 65% 30.04 in 10.0 mi Calm Calm - N/A   Mostly Cloudy
12:30 PM 80.6 °F 83.2 °F 68.0 °F 65% 30.03 in 10.0 mi Calm Calm - N/A   Scattered Clouds
12:50 PM 82.4 °F 85.4 °F 68.0 °F 62% 30.03 in 10.0 mi South 5.8 mph - N/A   Scattered Clouds
1:10 PM 84.2 °F 87.3 °F 68.0 °F 58% 30.02 in 10.0 mi North 3.5 mph - N/A   Partly Cloudy
1:30 PM 84.2 °F 87.3 °F 68.0 °F 58% 30.01 in 10.0 mi Calm Calm - N/A   Partly Cloudy
1:50 PM 84.2 °F 87.3 °F 68.0 °F 58% 30.01 in 10.0 mi South 3.5 mph - N/A   Partly Cloudy
2:10 PM 84.2 °F 86.6 °F 66.2 °F 55% 30.00 in 10.0 mi Calm Calm - N/A   Scattered Clouds
2:30 PM 84.2 °F 87.3 °F 68.0 °F 58% 29.99 in 10.0 mi East 3.5 mph - N/A   Partly Cloudy
2:50 PM 84.2 °F 86.6 °F 66.2 °F 55% 29.99 in 10.0 mi Calm Calm - N/A   Partly Cloudy
3:50 PM 86.0 °F 90.4 °F 69.8 °F 58% 29.97 in 10.0 mi Calm Calm - N/A   Partly Cloudy
4:30 PM 87.8 °F 92.6 °F 69.8 °F 55% 29.96 in 10.0 mi ESE 5.8 mph - N/A   Scattered Clouds
5:30 PM 86.0 °F 90.4 °F 69.8 °F 58% 29.94 in 10.0 mi East 3.5 mph - N/A   Partly Cloudy
5:50 PM 87.8 °F 91.4 °F 68.0 °F 52% 29.93 in 10.0 mi East 5.8 mph - N/A   Clear
6:10 PM 87.8 °F 92.6 °F 69.8 °F 55% 29.92 in 10.0 mi ENE 4.6 mph - N/A   Clear
6:30 PM 87.8 °F 92.6 °F 69.8 °F 55% 29.92 in 10.0 mi ESE 3.5 mph - N/A   Clear
6:50 PM 86.0 °F 90.4 °F 69.8 °F 58% 29.92 in 10.0 mi East 3.5 mph - N/A   Clear
7:10 PM 86.0 °F 90.4 °F 69.8 °F 58% 29.92 in 10.0 mi East 3.5 mph - N/A   Clear
7:30 PM 84.2 °F 89.6 °F 71.6 °F 66% 29.92 in 10.0 mi Calm Calm - N/A   Clear
7:50 PM 84.2 °F 89.6 °F 71.6 °F 66% 29.93 in 10.0 mi Calm Calm - N/A   Clear
8:10 PM 82.4 °F 87.2 °F 71.6 °F 70% 29.92 in 10.0 mi Calm Calm - N/A   Clear
8:30 PM 82.4 °F 87.2 °F 71.6 °F 70% 29.93 in 10.0 mi Calm Calm - N/A   Clear
8:50 PM 80.6 °F 84.6 °F 71.6 °F 74% 29.93 in 10.0 mi Calm Calm - N/A   Clear
9:10 PM 80.6 °F 84.6 °F 71.6 °F 74% 29.93 in 10.0 mi Calm Calm - N/A   Clear
9:30 PM 78.8 °F - 73.4 °F 83% 29.94 in 10.0 mi Calm Calm - N/A   Clear
9:50 PM 78.8 °F - 71.6 °F 78% 29.94 in 10.0 mi SSE 3.5 mph - N/A   Clear
10:10 PM 78.8 °F - 71.6 °F 78% 29.95 in 10.0 mi SSE 3.5 mph - N/A   Clear
10:30 PM 78.8 °F - 71.6 °F 78% 29.96 in 10.0 mi SE 3.5 mph - N/A   Clear
10:50 PM 77.0 °F - 71.6 °F 83% 29.96 in 10.0 mi SE 3.5 mph - N/A   Clear
11:10 PM 75.2 °F - 69.8 °F 83% 29.96 in 10.0 mi Calm Calm - N/A   Clear
11:50 PM 75.2 °F - 69.8 °F 83% 29.97 in 10.0 mi Calm Calm - N/A   Clear